GW2002 Weather Reports


time (UTC)temp
C
wind
direction
speed
KPH
gust
KPH
rain 1hr
cm
rain 24hr
cm
rain mn
cm
humidity
%
barometer
mb
20260505041330 20 16 3.2 4.8 0.00 0.00 0.00 35 1003.9
20260505040827 21 248 3.2 8.0 0.00 0.00 0.00 34 1003.8
20260505040325 21 244 3.2 8.0 0.00 0.00 0.00 35 1004.0
20260505035821 21 221 6.4 6.4 0.00 0.00 0.00 34 1003.7
20260505035600 21 187 3.2 8.0 0.00 0.00 0.00 35 1003.8
20260505035213 21 188 4.8 6.4 0.00 0.00 0.00 35 1004.0
20260505034710 21 197 3.2 6.4 0.00 0.00 0.00 35 1003.9
20260505034207 21 255 1.6 6.4 0.00 0.00 0.00 35 1003.8
20260505034138 21 275 3.2 6.4 0.00 0.00 0.00 35 1003.9
20260505033634 21 188 0.0 6.4 0.00 0.00 0.00 38 1003.8
20260505033132 21 354 4.8 11.3 0.00 0.00 0.00 37 1004.1
20260505032907 21 325 3.2 6.4 0.00 0.00 0.00 43 1003.8
20260505032403 21 212 3.2 4.8 0.00 0.00 0.00 51 1003.6
20260505031900 21 221 1.6 3.2 0.00 0.00 0.00 51 1003.5
20260505031356 21 202 3.2 6.4 0.00 0.00 0.00 51 1003.1
20260505031246 21 201 1.6 3.2 0.00 0.00 0.00 52 1003.4
20260505031143 21 246 3.2 3.2 0.00 0.00 0.00 52 1003.3
20260505030854 20 6 0.0 9.7 0.00 0.00 0.00 53 1003.2
20260505030755 20 227 8.0 8.0 0.00 0.00 0.00 54 1003.0
20260505030709 20 227 8.0 8.0 0.00 0.00 0.00 54 1003.0
20260505030205 20 8 3.2 4.8 0.00 0.00 0.00 57 1003.0
20260505025701 20 37 0.0 4.8 0.00 0.00 0.00 59 1002.6
20260505025159 20 338 3.2 3.2 0.00 0.00 0.00 59 1002.7
20260505024657 20 190 3.2 8.0 0.00 0.00 0.00 60 1002.6
20260505024154 19 351 3.2 4.8 0.00 0.00 0.00 66 1002.2
20260505023651 20 321 1.6 1.6 0.00 0.00 0.00 64 1036.0
20260505023148 20 311 0.0 3.2 0.00 0.00 0.00 64 1035.6
20260505022727 20 345 1.6 3.2 0.00 0.00 0.00 65 1034.6
20260505022223 20 335 0.0 3.2 0.00 0.00 0.00 64 1034.6
20260505021720 20 358 0.0 0.0 0.00 0.00 0.00 62 1034.5
20260505021217 20 38 0.0 1.6 0.00 0.00 0.00 62 1034.3
20260505020713 20 35 0.0 3.2 0.00 0.00 0.00 62 1035.4
20260505020208 20 243 0.0 3.2 0.00 0.00 0.00 60 1035.2
20260505015907 20 231 0.0 0.0 0.00 0.00 0.00 60 1035.0
20260505015405 21 162 0.0 1.6 0.00 0.00 0.00 59 1035.0
20260505014902 21 238 0.0 3.2 0.00 0.00 0.00 58 1035.2
20260505014359 21 228 0.0 3.2 0.00 0.00 0.00 57 1035.0
20260505013855 21 163 1.6 3.2 0.00 0.00 0.00 57 1035.0
20260505013352 21 190 3.2 3.2 0.00 0.00 0.00 57 1034.8
20260505012851 22 175 3.2 4.8 0.00 0.00 0.00 56 1034.7
20260505012348 22 179 4.8 6.4 0.00 0.00 0.00 55 1034.7
20260505012030 22 184 4.8 6.4 0.00 0.00 0.00 55 1031.6
20260505011525 23 176 6.4 6.4 0.00 0.00 0.00 54 1031.7
20260505011023 23 179 4.8 6.4 0.00 0.00 0.00 49 1031.6
20260505010518 23 180 4.8 6.4 0.00 0.00 0.00 48 1031.6
20260505010414 23 182 6.4 6.4 0.00 0.00 0.00 48 1031.6
20260505010402 24 182 4.8 6.4 0.00 0.00 0.00 48 1031.6
20260505010252 24 177 4.8 4.8 0.00 0.00 0.00 48 1031.4
20260505005748 25 181 4.8 6.4 0.00 0.00 0.00 45 1031.5
20260505005546 25 181 4.8 6.4 0.00 0.00 0.00 45 1031.5
20260505005044 25 184 4.8 4.8 0.00 0.00 0.00 45 1031.4
20260505004541 25 191 3.2 4.8 0.00 0.00 0.00 44 1031.2
20260505004037 25 180 6.4 6.4 0.00 0.00 0.00 43 1031.4
20260505003535 25 204 4.8 4.8 0.00 0.00 0.00 41 1031.2
20260505003032 26 222 1.6 4.8 0.00 0.00 0.00 42 1031.3
20260505002532 26 183 1.6 6.4 0.00 0.00 0.00 40 1031.2
20260505002032 26 197 0.0 8.0 0.00 0.00 0.00 41 1031.3
20260505001528 26 74 0.0 3.2 0.00 0.00 0.00 41 1031.2
20260505001025 26 306 0.0 3.2 0.00 0.00 0.00 42 997.0
20260505000523 26 100 0.0 6.4 0.00 0.00 0.00 41 997.0
20260505000020 26 37 3.2 6.4 0.00 0.00 0.00 41 996.8
20260504235517 26 77 3.2 8.0 0.00 0.00 0.00 41 996.9
20260504235013 26 52 1.6 3.2 0.00 0.00 0.00 42 996.9
20260504234511 26 37 3.2 4.8 0.00 0.00 0.00 41 997.1
20260504234008 26 70 3.2 4.8 0.00 0.00 0.00 41 996.8
20260504233502 26 53 3.2 8.0 0.00 0.00 0.00 40 997.0
20260504233000 26 51 9.7 9.7 0.00 0.00 0.00 41 996.8
20260504232457 26 48 6.4 6.4 0.00 0.00 0.00 40 996.9
20260504231954 26 17 3.2 8.0 0.00 0.00 0.00 40 997.1
20260504231450 27 36 1.6 8.0 0.00 0.00 0.00 40 996.8
20260504230947 27 25 3.2 6.4 0.00 0.00 0.00 40 997.0
20260504230443 27 37 0.0 6.4 0.00 0.00 0.00 41 996.9
20260504225943 27 47 4.8 6.4 0.00 0.00 0.00 39 997.0
20260504225439 27 16 4.8 6.4 0.00 0.00 0.00 38 996.8
20260504224936 27 34 9.7 12.9 0.00 0.00 0.00 38 996.8
20260504212937 26 347 0.0 0.0 0.61 0.10 0.10 48 1001.5
20260504212433 26 347 0.0 0.0 0.61 0.10 0.10 48 1001.5
20260504211931 26 347 0.0 0.0 0.61 0.10 0.10 48 1001.5
20260504211427 27 66 0.0 0.0 0.30 0.05 0.05 43 1001.5
20260504210924 28 67 0.0 0.0 0.13 0.03 0.03 42 1001.4
20260504210421 27 357 1.6 1.6 0.00 0.00 0.00 43 1001.8
20260504205918 28 353 0.0 0.0 0.00 0.00 0.00 41 1001.5
20260504205416 27 353 4.8 4.8 0.00 0.00 0.00 44 1001.4
20260504204914 28 352 3.2 4.8 0.00 0.00 0.00 41 1001.6
20260504204412 27 355 1.6 3.2 0.00 0.00 0.00 42 1001.5
20260504203911 27 349 4.8 8.0 0.00 0.00 0.00 42 1001.7
20260504203408 27 344 4.8 4.8 0.00 0.00 0.00 41 1001.7
20260504202903 27 328 6.4 8.0 0.00 0.00 0.00 41 1001.8
20260504202401 28 268 4.8 4.8 0.00 0.00 0.00 42 1001.8
20260504201857 27 225 6.4 9.7 0.00 0.00 0.00 41 1002.1
20260504201355 28 333 3.2 3.2 0.00 0.00 0.00 44 1002.1
20260504200852 27 265 4.8 8.0 0.00 0.00 0.00 43 1002.0
20260504200348 27 238 3.2 3.2 0.00 0.00 0.00 42 1002.1
20260504195845 27 316 0.0 0.0 0.00 0.00 0.00 45 1002.0
20260504195340 27 222 3.2 4.8 0.00 0.00 0.00 42 1002.1
20260504194838 27 259 4.8 8.0 0.00 0.00 0.00 43 1002.2
20260504194333 27 167 3.2 4.8 0.00 0.00 0.00 43 1002.2
20260504193829 27 183 6.4 8.0 0.00 0.00 0.00 43 1002.2
20260504193327 27 180 3.2 4.8 0.00 0.00 0.00 44 1002.1
20260504192826 27 151 8.0 11.3 0.00 0.00 0.00 42 1002.0
20260504192323 27 313 0.0 1.6 0.00 0.00 0.00 48 1002.1
20260504191822 27 307 1.6 1.6 0.00 0.00 0.00 43 1002.0
20260504191319 27 291 4.8 4.8 0.00 0.00 0.00 45 1002.1
20260504190814 26 336 0.0 1.6 0.00 0.00 0.00 48 1002.1
20260504190310 27 147 8.0 11.3 0.00 0.00 0.00 45 1002.1
20260504185807 26 310 0.0 1.6 0.00 0.00 0.00 47 1002.1
20260504185305 26 287 3.2 4.8 0.00 0.00 0.00 46 1002.2
20260504184800 26 260 4.8 4.8 0.00 0.00 0.00 46 1002.3
20260504184256 26 141 4.8 8.0 0.00 0.00 0.00 48 1002.1
20260504183752 26 218 4.8 4.8 0.00 0.00 0.00 47 1002.1
20260504183249 26 226 9.7 11.3 0.00 0.00 0.00 46 1002.1
20260504182747 26 201 17.7 22.5 0.00 0.00 0.00 45 1002.2
20260504182244 26 161 14.5 16.1 0.00 0.00 0.00 44 1002.4
20260504181742 26 220 3.2 4.8 0.00 0.00 0.00 47 1002.4
20260504181239 26 255 3.2 3.2 0.00 0.00 0.00 45 1002.3
20260504180738 26 312 0.0 0.0 0.00 0.00 0.00 50 1002.5
20260504180236 26 214 9.7 11.3 0.00 0.00 0.00 47 1002.4
20260504175733 25 188 4.8 8.0 0.00 0.00 0.00 49 1002.5
20260504175230 26 265 1.6 3.2 0.00 0.00 0.00 47 1002.5
20260504174728 26 196 8.0 9.7 0.00 0.00 0.00 49 1002.4
20260504174226 25 343 4.8 4.8 0.00 0.00 0.00 47 1002.4
20260504173722 25 157 4.8 4.8 0.00 0.00 0.00 47 1002.6
20260504173219 26 206 8.0 14.5 0.00 0.00 0.00 47 1002.6
20260504172716 25 226 4.8 8.0 0.00 0.00 0.00 47 1002.5
20260504172212 25 177 4.8 4.8 0.00 0.00 0.00 48 1002.7
20260504171709 25 219 9.7 9.7 0.00 0.00 0.00 48 1002.6
20260504171206 25 174 6.4 11.3 0.00 0.00 0.00 50 1002.7
20260504170702 25 186 4.8 4.8 0.00 0.00 0.00 50 1002.6
20260504170200 24 285 1.6 1.6 0.00 0.00 0.00 48 1002.8
20260504160118 23 325 1.6 3.2 0.00 0.00 0.00 55 1002.8
20260504151039 21 195 4.8 4.8 0.00 0.00 0.00 54 1002.9
20260504150537 21 358 3.2 4.8 0.00 0.00 0.00 57 1002.9
20260504141003 20 297 1.6 3.2 0.00 0.00 0.00 60 1003.2
20260504140459 20 215 4.8 8.0 0.00 0.00 0.00 60 1003.1
20260504130424 18 295 1.6 3.2 0.00 0.00 0.00 62 1003.3
20260504110311 12 306 0.0 0.0 0.00 0.00 0.00 85 1003.0
20260504100229 12 312 0.0 0.0 0.00 0.00 0.00 85 1004.3
20260504081627 16 326 0.0 1.6 0.00 0.00 0.00 64 1005.0
20260504081123 16 330 0.0 0.0 0.00 0.00 0.00 63 1005.1
20260504080620 17 328 0.0 0.0 0.00 0.00 0.00 61 1005.0
20260504080116 17 328 0.0 1.6 0.00 0.00 0.00 58 1004.9
20260504050432 17 328 0.0 0.0 0.00 0.00 0.00 67 1006.6
20260504045930 17 328 0.0 0.0 0.00 0.00 0.00 69 1006.2
20260504045425 18 322 0.0 0.0 0.00 0.00 0.00 66 1006.6
20260504044916 18 321 0.0 0.0 0.00 0.00 0.00 61 1006.8
20260504044414 18 317 0.0 0.0 0.00 0.00 0.00 59 1006.8
20260504043911 19 315 0.0 0.0 0.00 0.00 0.00 59 1006.9
20260504043408 20 331 0.0 0.0 0.00 0.00 0.00 56 1006.9
20260504042905 20 104 4.8 4.8 0.00 0.00 0.00 54 1007.1
20260504042401 19 308 1.6 3.2 0.00 0.00 0.00 54 1007.3